Temp
70 71 72 73 73 74 73 74 74 74 73 74 74 75 74 74 73 73 73 73 73 73 73 73 73 74 74 75 74 73 73 73 72 71 71 70 69 69 69 69 68 68 68 67 67 67 66 65 65 64 62 65
68 70 71 71 71 72 72 73 73 73 73 73 73 72 72 71 71 72 72 72 72 73 73 72 72 72 73 74 73 73 72 72 71 71 70 69 69 69 68 68 68 67 67 67 66 66 65 65 64 63 63 63
68 66 68 69 69 70 71 72 71 71 71 70 71 70 69 69 68 67 68 69 70 70 69 69 70 72 72 73 73 72 72 71 71 70 70 69 68 68 68 68 67 67 66 66 66 66 64 63 61 63 62 62
71 65 65 68 68 69 70 70 70 69 68 66 66 66 65 64 64 63 65 64 66 66 67 66 67 69 70 73 72 72 71 71 71 70 69 69 68 68 68 67 67 66 66 66 66 64 64 61 61 60 58 60
72 68 64 65 64 65 67 68 68 68 63 61 60 61 60 61 67 68 67 66 68 62 65 60 63 68 70 72 71 71 71 71 70 70 69 69 68 67 67 64 65 64 66 65 65 64 62 60 60 59 59 60
72 69 67 70 68 67 66 64 63 64 66 65 67 61 62 67 69 69 68 68 67 67 65 62 62 65 68 70 69 69 71 71 70 70 69 69 68 68 65 63 57 56 61 63 64 62 61 58 55 56 58 58
72 70 70 70 71 70 66 67 67 69 68 69 69 68 68 67 70 70 70 69 68 69 63 64 61 64 66 68 67 68 69 70 70 70 70 69 68 67 65 56 57 56 53 55 58 59 56 55 55 56 57 56
71 71 71 71 71 71 70 69 69 69 70 70 70 69 69 69 70 70 67 62 62 66 66 62 60 62 63 65 65 65 66 67 68 69 69 67 67 64 60 60 59 58 57 56 56 55 54 55 56 55 55 54
71 71 71 71 71 71 69 70 70 70 71 70 70 69 69 71 70 71 68 67 67 68 67 65 65 64 64 63 63 62 64 65 66 64 63 62 60 60 63 60 61 60 58 58 58 57 55 56 55 54 54 55
69 71 70 70 70 70 71 70 69 69 69 69 69 69 69 70 69 69 68 68 68 68 68 67 66 66 65 63 63 62 63 63 64 63 64 63 61 62 63 61 60 59 58 59 58 57 56 57 55 54 54 55
70 70 70 70 69 69 69 69 68 67 68 68 68 68 68 67 67 67 67 68 68 68 69 67 67 67 66 65 64 63 63 63 63 64 63 62 63 63 62 60 59 59 59 58 57 56 56 56 56 54 54 53
70 69 71 69 69 68 66 67 68 68 68 68 68 67 67 65 67 66 66 66 67 68 67 66 68 68 67 65 64 65 65 65 64 63 62 62 63 65 61 60 60 59 60 60 57 57 57 56 57 55 54 54
70 70 69 68 67 66 64 66 66 66 66 67 67 67 67 68 67 65 66 65 65 66 66 67 66 66 65 66 65 66 66 66 65 63 62 62 65 64 63 62 62 60 60 58 60 57 56 56 56 55 54 54
67 67 66 66 65 64 65 66 66 65 64 64 65 66 67 67 66 66 65 64 64 65 65 65 65 65 65 65 65 65 63 64 63 62 61 61 61 62 63 63 62 60 60 59 58 57 56 56 56 55 55 55
65 66 65 64 64 63 64 66 67 65 63 64 65 65 66 66 66 65 65 64 62 61 62 62 62 62 63 63 63 64 63 63 62 60 59 58 58 59 60 60 61 61 61 57 58 56 57 58 55 56 56 55
62 63 64 63 63 62 63 65 65 64 63 63 64 65 65 65 65 64 63 63 62 61 60 60 60 60 60 60 61 62 62 61 60 59 57 57 58 58 58 59 60 61 61 60 61 58 58 57 57 56 56 55
62 63 63 63 64 64 64 64 64 62 61 61 62 63 64 64 63 62 62 62 61 60 59 58 58 58 58 59 59 60 61 61 60 59 58 57 58 58 58 60 60 60 61 60 59 58 57 57 57 56 56 55
62 62 62 62 63 63 63 62 60 58 59 59 60 60 60 61 63 64 63 62 61 60 59 58 58 57 57 58 58 58 59 58 58 59 59 58 58 58 59 58 58 57 56 55 55 57 57 58 56 57 57 55
60 61 61 61 61 60 58 58 57 57 58 59 60 59 57 58 59 62 63 63 63 61 60 59 57 56 57 57 57 58 58 58 58 57 56 55 55 56 56 56 55 55 54 53 54 55 57 59 59 58 57 55
60 60 60 60 58 58 57 57 56 56 55 55 55 55 55 56 57 59 60 61 61 60 59 58 58 57 57 57 57 57 57 58 57 56 54 53 53 54 53 55 56 55 55 54 54 54 57 58 58 58 57 57
58 58 58 59 58 57 56 55 54 54 54 54 54 53 53 54 55 57 58 58 57 57 56 56 56 55 55 54 55 55 55 55 54 53 53 52 53 54 53 53 53 53 53 53 54 55 56 57 58 57 58 58
57 57 57 56 55 55 56 55 54 54 54 53 53 53 52 53 53 55 56 56 55 55 54 54 53 54 54 54 54 54 53 52 53 53 53 53 53 54 54 53 53 52 52 53 53 53 53 55 54 55 55 55
57 57 56 55 54 53 53 53 53 53 53 52 52 52 53 52 52 52 53 54 54 54 53 53 53 53 53 53 53 53 53 53 53 53 54 54 54 54 53 51 51 50 49 50 51 51 52 51 53 54 53 51
58 57 55 54 54 52 52 52 51 51 51 51 51 51 52 51 51 52 52 53 53 54 53 52 52 53 53 53 52 52 51 52 52 51 51 52 52 50 50 50 50 50 49 50 49 50 51 53 54 52 50 51
56 55 54 54 52 50 50 50 50 49 49 49 50 50 51 50 50 50 50 50 51 52 52 52 51 51 51 51 50 49 49 49 49 50 50 49 51 50 49 49 50 50 49 48 47 48 50 52 51 52 53 52
56 55 53 51 49 49 49 49 47 46 47 47 48 48 48 48 48 48 48 48 49 50 50 49 49 49 49 49 49 48 48 48 48 49 49 49 47 50 48 47 48 49 47 43 41 41 45 47 50 50 52 51
54 54 53 51 49 49 47 47 47 47 47 47 47 47 47 47 47 47 47 47 47 48 48 48 48 48 48 48 47 47 46 46 46 46 47 47 46 45 47 46 48 48 47 41 43 43 43 43 43 47 47 49
52 52 52 51 50 49 48 46 47 47 47 46 46 45 46 46 46 46 46 46 46 46 46 46 46 46 46 47 46 45 45 44 44 45 45 46 46 45 44 44 45 47 47 46 43 38 40 42 41 36 38 43
50 50 50 50 49 49 48 47 46 46 45 44 44 44 44 44 45 45 45 45 45 45 44 44 45 45 45 45 45 44 44 43 42 43 43 44 44 43 41 42 42 44 46 46 45 41 36 35 36 36 37 40
50 50 49 48 47 45 44 43 42 41 41 41 42 42 43 44 44 44 44 44 44 44 44 44 43 43 44 43 43 43 42 42 42 42 42 43 42 42 43 42 41 41 44 44 45 44 41 41 38 34 37 36
51 50 49 48 46 45 44 42 41 42 42 42 42 43 43 43 43 43 43 43 43 43 42 42 42 42 42 42 42 42 41 41 40 41 41 41 42 41 42 41 39 39 40 40 42 42 43 42 41 40 38 33
MSLP
1020.15 1020.29 1020.39 1020.51 1020.67 1020.75 1020.91 1020.99 1021.07 1021.25 1021.41 1021.47 1021.49 1021.61 1021.79 1021.87 1021.95 1022.09 1022.29 1022.39 1022.49 1022.49 1022.63 1022.73 1022.79 1022.87 1022.89 1022.87 1022.97 1023.13 1023.25 1023.35 1023.43 1023.53 1023.57 1023.61 1023.61 1023.63 1023.63 1023.63 1023.61 1023.59 1023.51 1023.45 1023.41 1023.37 1023.33 1023.29 1023.25 1023.19 1023.13 1023.11
1020.11 1020.25 1020.41 1020.55 1020.69 1020.77 1020.93 1021.01 1021.09 1021.23 1021.39 1021.45 1021.49 1021.59 1021.69 1021.81 1021.91 1022.07 1022.17 1022.35 1022.47 1022.53 1022.57 1022.75 1022.81 1022.95 1022.97 1023.01 1023.09 1023.19 1023.35 1023.45 1023.53 1023.61 1023.69 1023.73 1023.77 1023.79 1023.83 1023.85 1023.85 1023.85 1023.79 1023.69 1023.63 1023.59 1023.55 1023.53 1023.49 1023.43 1023.33 1023.37
1020.03 1020.15 1020.31 1020.47 1020.63 1020.81 1020.93 1021.01 1021.11 1021.21 1021.33 1021.41 1021.47 1021.53 1021.63 1021.71 1021.79 1021.99 1022.11 1022.27 1022.41 1022.49 1022.57 1022.69 1022.79 1022.89 1022.97 1023.05 1023.13 1023.27 1023.41 1023.51 1023.57 1023.65 1023.73 1023.81 1023.85 1023.89 1023.93 1023.97 1024.01 1023.99 1023.97 1023.89 1023.83 1023.81 1023.79 1023.75 1023.69 1023.59 1023.61 1023.65
1019.91 1020.17 1020.31 1020.43 1020.59 1020.71 1020.87 1020.99 1021.09 1021.21 1021.29 1021.37 1021.41 1021.49 1021.61 1021.67 1021.81 1021.97 1022.09 1022.17 1022.35 1022.43 1022.53 1022.63 1022.69 1022.79 1022.87 1022.97 1023.11 1023.23 1023.35 1023.47 1023.55 1023.65 1023.71 1023.79 1023.87 1023.89 1023.95 1023.99 1024.01 1024.01 1023.97 1023.97 1023.93 1023.89 1023.91 1023.89 1023.81 1023.77 1023.81 1023.87
1019.79 1020.07 1020.25 1020.41 1020.57 1020.67 1020.79 1020.93 1021.03 1021.15 1021.33 1021.45 1021.55 1021.59 1021.69 1021.77 1021.83 1021.99 1022.11 1022.15 1022.27 1022.47 1022.59 1022.67 1022.65 1022.69 1022.77 1022.87 1023.01 1023.15 1023.25 1023.37 1023.49 1023.57 1023.65 1023.71 1023.77 1023.85 1023.95 1024.01 1024.03 1024.03 1023.99 1023.95 1023.95 1023.93 1023.95 1023.93 1023.91 1023.89 1023.91 1024.01
1019.77 1020.07 1020.23 1020.37 1020.57 1020.71 1020.83 1020.95 1021.05 1021.21 1021.33 1021.49 1021.59 1021.69 1021.77 1021.75 1021.79 1021.93 1022.07 1022.13 1022.25 1022.43 1022.59 1022.69 1022.71 1022.75 1022.87 1023.01 1023.17 1023.25 1023.35 1023.43 1023.51 1023.65 1023.69 1023.69 1023.71 1023.77 1023.87 1023.95 1023.99 1024.05 1024.05 1024.01 1023.99 1024.03 1024.03 1024.03 1024.01 1023.97 1024.01 1024.13
1019.83 1020.07 1020.25 1020.33 1020.49 1020.69 1020.85 1021.01 1021.15 1021.21 1021.31 1021.41 1021.49 1021.61 1021.69 1021.71 1021.65 1021.75 1021.93 1022.13 1022.29 1022.41 1022.61 1022.75 1022.91 1022.99 1023.05 1023.09 1023.27 1023.41 1023.47 1023.53 1023.63 1023.73 1023.85 1023.83 1023.81 1023.87 1023.95 1024.03 1024.03 1024.01 1024.05 1024.03 1024.01 1024.05 1024.07 1024.11 1024.11 1024.13 1024.15 1024.27
1019.83 1020.05 1020.13 1020.27 1020.45 1020.65 1020.85 1021.01 1021.15 1021.21 1021.23 1021.31 1021.41 1021.57 1021.61 1021.61 1021.59 1021.75 1022.01 1022.19 1022.35 1022.53 1022.79 1023.03 1023.11 1023.15 1023.25 1023.27 1023.31 1023.41 1023.55 1023.65 1023.69 1023.79 1023.89 1023.97 1023.95 1023.93 1023.97 1024.01 1024.05 1024.07 1024.09 1024.07 1024.07 1024.07 1024.09 1024.09 1024.13 1024.19 1024.23 1024.33
1020.01 1019.89 1020.01 1020.17 1020.39 1020.57 1020.79 1020.95 1021.09 1021.21 1021.25 1021.37 1021.41 1021.47 1021.65 1021.61 1021.63 1021.79 1022.07 1022.23 1022.41 1022.53 1022.79 1023.05 1023.25 1023.35 1023.45 1023.51 1023.61 1023.59 1023.69 1023.71 1023.81 1023.83 1023.93 1024.03 1024.09 1024.11 1024.01 1024.09 1024.15 1024.21 1024.23 1024.23 1024.25 1024.25 1024.23 1024.21 1024.19 1024.21 1024.25 1024.29
1020.09 1019.97 1020.19 1020.29 1020.43 1020.55 1020.71 1020.91 1021.21 1021.33 1021.41 1021.49 1021.57 1021.59 1021.83 1021.77 1021.87 1021.99 1022.17 1022.21 1022.33 1022.45 1022.67 1022.93 1023.17 1023.33 1023.45 1023.63 1023.75 1023.73 1023.81 1023.85 1023.89 1024.01 1023.93 1024.03 1024.19 1024.17 1024.21 1024.35 1024.37 1024.39 1024.41 1024.43 1024.45 1024.47 1024.45 1024.43 1024.41 1024.37 1024.37 1024.35
1020.11 1020.21 1020.23 1020.35 1020.47 1020.73 1020.99 1021.11 1021.43 1021.63 1021.59 1021.63 1021.85 1021.93 1021.87 1021.97 1022.11 1022.17 1022.27 1022.43 1022.41 1022.47 1022.49 1022.73 1022.81 1022.99 1023.19 1023.49 1023.69 1023.79 1023.89 1023.93 1023.89 1024.05 1024.07 1024.09 1024.15 1024.15 1024.33 1024.49 1024.55 1024.59 1024.59 1024.59 1024.63 1024.65 1024.67 1024.67 1024.69 1024.71 1024.75 1024.73
1020.23 1020.25 1020.49 1020.57 1020.81 1021.07 1021.29 1021.37 1021.63 1021.77 1021.93 1021.95 1022.03 1022.03 1022.03 1022.05 1022.21 1022.37 1022.47 1022.55 1022.59 1022.45 1022.41 1022.71 1022.85 1023.05 1023.09 1023.29 1023.49 1023.59 1023.67 1023.87 1023.99 1024.07 1024.15 1024.21 1024.21 1024.23 1024.35 1024.49 1024.59 1024.65 1024.65 1024.69 1024.73 1024.79 1024.81 1024.77 1024.77 1024.83 1024.89 1024.93
1020.17 1020.39 1020.69 1020.99 1021.19 1021.59 1021.65 1021.81 1022.01 1022.09 1022.17 1022.35 1022.41 1022.35 1022.33 1022.29 1022.49 1022.61 1022.75 1022.93 1022.85 1022.69 1022.69 1022.69 1022.91 1023.17 1023.35 1023.41 1023.45 1023.55 1023.69 1023.79 1023.87 1024.03 1024.23 1024.35 1024.41 1024.41 1024.51 1024.57 1024.63 1024.61 1024.67 1024.75 1024.79 1024.89 1024.93 1024.91 1024.89 1024.89 1024.95 1025.01
1020.65 1020.85 1021.17 1021.43 1021.57 1021.77 1021.85 1022.03 1022.19 1022.27 1022.55 1022.75 1022.73 1022.71 1022.61 1022.65 1022.75 1022.91 1023.07 1023.19 1023.11 1023.21 1023.13 1023.03 1023.05 1023.33 1023.51 1023.65 1023.55 1023.65 1023.95 1024.03 1024.17 1024.37 1024.47 1024.61 1024.63 1024.61 1024.75 1024.79 1024.79 1024.75 1024.77 1024.73 1024.83 1024.91 1025.01 1025.03 1025.01 1025.01 1025.01 1025.07
1021.03 1021.17 1021.51 1021.75 1021.87 1021.95 1022.13 1022.23 1022.41 1022.71 1022.93 1022.95 1022.99 1023.01 1022.93 1022.93 1023.07 1023.29 1023.37 1023.47 1023.63 1023.65 1023.53 1023.49 1023.69 1023.89 1023.95 1024.03 1024.01 1023.93 1024.11 1024.27 1024.45 1024.61 1024.73 1024.79 1024.81 1024.85 1024.97 1025.03 1024.89 1024.79 1024.89 1024.95 1024.93 1024.99 1025.07 1025.07 1025.07 1025.07 1025.05 1025.09
1021.39 1021.61 1021.83 1022.03 1022.11 1022.29 1022.41 1022.45 1022.69 1022.93 1023.05 1023.17 1023.29 1023.33 1023.37 1023.45 1023.59 1023.65 1023.71 1023.79 1023.93 1023.95 1023.93 1024.05 1024.21 1024.35 1024.45 1024.61 1024.45 1024.33 1024.41 1024.57 1024.69 1024.81 1024.97 1024.97 1025.01 1025.09 1025.09 1025.13 1025.09 1024.91 1024.89 1024.95 1024.93 1024.95 1025.05 1025.07 1025.09 1025.13 1025.13 1025.15
1021.67 1021.83 1022.09 1022.25 1022.27 1022.37 1022.55 1022.65 1022.89 1023.19 1023.45 1023.57 1023.69 1023.71 1023.71 1023.77 1023.81 1023.83 1023.91 1024.09 1024.19 1024.29 1024.39 1024.57 1024.69 1024.67 1024.73 1024.95 1024.87 1024.69 1024.67 1024.73 1024.85 1024.93 1025.07 1025.15 1025.23 1025.29 1025.21 1025.21 1025.25 1025.15 1025.03 1025.03 1024.99 1024.93 1025.01 1025.03 1025.11 1025.17 1025.19 1025.25
1021.91 1022.13 1022.29 1022.41 1022.47 1022.67 1022.89 1023.11 1023.33 1023.55 1023.67 1023.77 1023.91 1023.99 1024.03 1023.95 1023.81 1023.81 1023.93 1024.15 1024.41 1024.51 1024.69 1024.87 1025.05 1025.23 1025.29 1025.25 1025.23 1025.07 1025.03 1025.03 1025.05 1025.13 1025.25 1025.41 1025.51 1025.49 1025.45 1025.57 1025.73 1025.63 1025.51 1025.45 1025.33 1025.31 1025.25 1025.13 1025.21 1025.25 1025.33 1025.39
1022.29 1022.45 1022.53 1022.69 1022.81 1023.15 1023.37 1023.57 1023.77 1023.93 1023.95 1023.99 1024.17 1024.25 1024.29 1024.23 1024.13 1024.03 1024.05 1024.13 1024.33 1024.57 1024.81 1025.05 1025.27 1025.43 1025.57 1025.45 1025.37 1025.51 1025.41 1025.35 1025.57 1025.73 1025.91 1025.99 1026.03 1026.01 1025.95 1025.99 1026.07 1026.13 1026.19 1026.11 1025.91 1025.75 1025.57 1025.47 1025.31 1025.31 1025.43 1025.51
1022.59 1022.77 1022.87 1023.13 1023.37 1023.59 1023.75 1023.91 1024.11 1024.31 1024.41 1024.53 1024.63 1024.69 1024.71 1024.65 1024.55 1024.53 1024.51 1024.51 1024.57 1024.77 1025.01 1025.23 1025.43 1025.61 1025.65 1025.61 1025.73 1025.77 1025.67 1025.75 1025.99 1026.19 1026.37 1026.49 1026.43 1026.39 1026.43 1026.35 1026.37 1026.35 1026.37 1026.37 1026.29 1026.05 1025.79 1025.67 1025.57 1025.53 1025.63 1025.83
1023.01 1023.17 1023.43 1023.61 1023.77 1023.89 1024.03 1024.25 1024.51 1024.73 1024.87 1024.95 1025.05 1025.19 1025.19 1025.17 1025.11 1025.05 1025.03 1025.07 1025.13 1025.19 1025.37 1025.53 1025.65 1025.79 1025.81 1025.81 1025.81 1025.81 1025.93 1026.05 1026.31 1026.47 1026.61 1026.69 1026.63 1026.61 1026.71 1026.67 1026.63 1026.51 1026.45 1026.37 1026.27 1026.05 1025.93 1025.85 1025.79 1025.87 1025.95 1026.05
1023.35 1023.59 1023.79 1023.99 1024.17 1024.31 1024.43 1024.69 1024.91 1025.11 1025.17 1025.31 1025.45 1025.51 1025.59 1025.61 1025.59 1025.59 1025.61 1025.65 1025.69 1025.69 1025.77 1025.83 1025.87 1025.91 1025.87 1025.83 1025.79 1025.85 1026.01 1026.27 1026.41 1026.45 1026.49 1026.67 1026.77 1026.83 1027.01 1027.07 1027.07 1027.01 1026.87 1026.61 1026.31 1026.11 1026.01 1025.99 1026.05 1026.19 1026.23 1026.31
1023.63 1023.83 1024.05 1024.33 1024.55 1024.79 1025.03 1025.25 1025.43 1025.51 1025.55 1025.73 1025.77 1025.85 1025.93 1025.93 1025.99 1026.03 1025.97 1025.99 1026.05 1026.09 1026.17 1026.17 1026.19 1026.21 1026.21 1026.17 1026.19 1026.25 1026.39 1026.55 1026.61 1026.55 1026.51 1026.69 1026.93 1027.13 1027.41 1027.59 1027.49 1027.43 1027.17 1026.75 1026.43 1026.17 1026.09 1026.17 1026.39 1026.41 1026.43 1026.43
1023.79 1024.03 1024.33 1024.61 1024.95 1025.21 1025.59 1025.83 1025.91 1025.99 1026.09 1026.17 1026.15 1026.27 1026.23 1026.31 1026.39 1026.41 1026.41 1026.35 1026.37 1026.47 1026.59 1026.67 1026.75 1026.77 1026.79 1026.83 1026.83 1026.87 1026.97 1027.11 1027.09 1027.11 1026.97 1026.95 1027.21 1027.55 1027.59 1027.57 1027.57 1027.37 1027.19 1026.69 1026.43 1026.29 1026.25 1026.41 1026.49 1026.63 1026.69 1026.75
1023.93 1024.25 1024.61 1024.91 1025.31 1025.77 1026.11 1026.31 1026.37 1026.45 1026.61 1026.57 1026.63 1026.63 1026.63 1026.69 1026.77 1026.83 1026.81 1026.83 1026.83 1026.93 1027.03 1027.15 1027.29 1027.31 1027.39 1027.43 1027.45 1027.55 1027.75 1027.75 1027.65 1027.51 1027.47 1027.39 1027.37 1027.53 1027.75 1027.85 1027.85 1027.69 1027.47 1027.23 1026.51 1026.49 1026.69 1026.67 1026.73 1027.03 1027.13 1027.15
1023.93 1024.23 1024.57 1024.95 1025.59 1025.93 1026.41 1026.63 1026.75 1026.99 1027.05 1027.09 1027.09 1027.05 1027.07 1027.11 1027.15 1027.17 1027.23 1027.31 1027.31 1027.39 1027.49 1027.63 1027.73 1027.83 1027.93 1027.95 1028.03 1028.11 1028.11 1028.05 1027.97 1027.91 1027.87 1027.87 1027.69 1027.83 1028.17 1028.59 1028.57 1028.31 1027.69 1027.71 1028.39 1027.85 1027.07 1027.15 1026.99 1027.13 1027.47 1027.65
1024.09 1024.37 1024.69 1024.91 1025.63 1025.87 1026.53 1026.87 1027.03 1027.17 1027.41 1027.43 1027.43 1027.49 1027.51 1027.51 1027.53 1027.59 1027.71 1027.81 1027.89 1027.95 1028.09 1028.15 1028.15 1028.21 1028.19 1028.19 1028.27 1028.29 1028.45 1028.53 1028.57 1028.59 1028.51 1028.47 1028.55 1028.27 1028.41 1028.75 1028.85 1028.73 1028.63 1028.83 1028.39 1027.75 1027.17 1027.43 1027.51 1027.47 1027.75 1027.95
1024.43 1024.59 1024.87 1025.13 1025.43 1026.01 1026.25 1026.89 1027.19 1027.31 1027.53 1027.65 1027.61 1027.79 1027.87 1027.87 1027.91 1027.97 1028.13 1028.27 1028.33 1028.37 1028.43 1028.47 1028.57 1028.65 1028.67 1028.77 1028.83 1028.99 1029.13 1029.23 1029.27 1029.21 1029.11 1029.03 1029.09 1029.03 1029.01 1029.05 1029.15 1029.21 1029.13 1029.09 1028.57 1027.41 1028.67 1028.37 1028.01 1028.47 1029.15 1029.43
1024.71 1024.91 1025.17 1025.43 1025.79 1026.07 1026.45 1026.87 1027.15 1027.31 1027.69 1027.95 1028.11 1028.15 1028.15 1028.35 1028.25 1028.23 1028.33 1028.49 1028.65 1028.75 1028.93 1029.03 1029.09 1029.13 1029.23 1029.27 1029.39 1029.49 1029.63 1029.79 1029.95 1029.89 1029.81 1029.69 1029.63 1029.69 1029.61 1029.63 1029.67 1029.59 1029.57 1029.49 1029.59 1029.51 1029.23 1029.05 1029.27 1030.27 1030.33 1029.97
1024.77 1024.85 1025.07 1025.41 1025.75 1026.21 1026.59 1027.13 1027.49 1027.83 1028.19 1028.39 1028.45 1028.61 1028.71 1028.59 1028.57 1028.61 1028.73 1028.95 1029.11 1029.23 1029.35 1029.47 1029.57 1029.61 1029.65 1029.77 1029.89 1029.99 1030.15 1030.29 1030.27 1030.31 1030.21 1030.19 1030.13 1030.07 1030.09 1030.09 1030.23 1030.25 1030.03 1030.05 1030.07 1030.05 1030.19 1030.33 1030.35 1030.69 1030.19 1030.01
1024.75 1024.89 1025.03 1025.27 1025.69 1026.17 1026.71 1027.17 1027.95 1028.07 1028.29 1028.41 1028.69 1028.73 1028.81 1028.97 1028.99 1029.11 1029.21 1029.43 1029.55 1029.67 1029.81 1029.91 1029.99 1029.99 1030.05 1030.19 1030.35 1030.53 1030.63 1030.77 1030.87 1030.87 1030.79 1030.67 1030.49 1030.65 1030.67 1030.51 1030.61 1030.85 1030.91 1030.45 1030.47 1030.63 1030.47 1030.37 1030.49 1030.63 1030.43 1030.73
Wind_Speed
6 6 3 5 4 5 7 6 7 6 4 5 7 7 7 7 7 8 6 6 5 7 6 7 9 7 9 11 12 12 12 12 12 11 11 11 11 11 11 11 11 11 11 11 10 10 9 9 10 11 9 5
8 6 6 5 5 5 6 6 7 7 6 6 8 7 9 8 8 8 8 6 7 7 7 8 10 7 7 11 11 12 12 12 11 10 10 10 11 11 11 10 11 10 10 10 9 9 8 9 10 9 8 7
6 9 8 8 6 6 7 7 7 6 7 8 8 9 9 9 10 9 9 8 8 7 8 9 9 8 7 10 12 12 12 11 10 8 9 9 9 10 10 10 9 9 9 8 8 7 7 9 9 9 7 6
6 7 9 9 9 9 7 8 9 8 8 8 9 9 9 9 9 8 9 11 8 9 8 7 8 9 7 11 12 12 12 10 9 8 8 9 8 9 9 9 8 7 6 6 6 6 6 7 7 5 5 6
6 7 10 8 9 9 8 9 9 9 7 7 6 7 7 8 6 5 5 7 6 8 6 7 10 10 9 11 12 12 12 10 9 8 8 9 8 8 8 6 6 5 5 4 4 5 7 7 5 4 5 6
5 5 6 6 5 5 6 7 7 7 5 4 3 4 4 4 5 5 5 4 6 5 6 7 9 9 9 10 10 11 12 10 8 8 7 8 7 8 8 7 5 3 3 2 3 5 7 5 3 4 4 5
5 5 4 3 5 4 6 5 5 4 5 3 4 3 3 3 4 3 5 5 5 5 7 6 7 6 7 11 10 10 9 8 9 7 6 6 6 6 7 3 3 3 2 1 0 1 4 3 4 4 4 4
1 5 5 5 4 5 5 5 4 3 3 3 4 3 4 5 3 6 5 7 9 8 5 5 6 7 6 8 10 10 6 6 7 7 4 4 3 2 3 1 2 3 2 2 2 3 3 3 2 4 3 4
1 1 2 4 5 5 3 4 4 1 0 1 1 1 1 1 1 5 6 5 5 6 6 5 4 3 3 3 4 6 4 4 4 4 3 2 1 2 4 5 4 4 3 3 4 4 3 2 2 3 3 3
2 2 2 2 4 5 6 5 4 1 4 4 4 5 3 4 5 5 1 4 5 5 6 6 6 5 5 3 3 2 3 3 4 2 3 1 2 4 5 4 4 4 4 4 6 3 4 4 2 3 2 2
1 1 1 3 4 4 5 5 6 4 5 4 3 2 4 5 6 5 4 1 1 1 2 6 5 6 6 5 5 3 2 2 2 2 3 4 4 5 5 3 3 3 3 3 4 3 4 4 3 4 3 3
1 2 5 5 8 8 8 6 6 6 7 8 8 7 5 3 4 5 6 6 5 0 1 3 5 1 5 5 5 5 5 3 0 5 4 3 3 5 3 2 2 1 1 0 3 4 3 3 4 3 3 3
2 5 8 7 7 7 7 7 6 7 7 7 6 7 6 6 6 6 6 6 4 6 4 2 5 5 4 1 4 4 1 2 3 5 3 3 4 4 3 1 1 3 1 4 5 4 4 4 2 2 3 3
9 7 8 7 7 7 7 7 7 7 7 6 6 7 7 8 7 6 6 6 6 4 4 7 7 6 6 5 6 6 7 7 7 5 6 5 4 5 5 4 3 2 1 4 4 3 3 4 3 3 3 2
8 8 8 7 7 7 6 7 7 7 6 6 7 7 8 9 8 6 7 7 7 7 6 8 7 7 6 7 6 6 6 6 6 5 5 4 4 5 4 4 4 3 3 2 4 3 2 1 3 3 3 3
8 8 8 7 7 7 6 7 7 7 7 7 7 8 9 8 6 6 7 7 7 7 8 8 7 7 7 6 5 5 5 6 5 5 5 5 4 3 3 2 3 4 3 3 3 1 1 1 1 3 3 3
7 7 7 6 6 7 7 8 8 7 6 7 7 7 6 5 6 5 6 7 8 8 8 8 7 7 7 6 5 5 5 5 5 5 5 5 3 2 2 3 4 4 3 2 1 1 2 1 2 2 2 3
8 7 7 6 7 8 8 7 7 6 5 6 6 7 8 7 6 5 5 6 7 7 7 8 8 7 7 6 6 5 5 6 5 6 6 3 2 5 6 6 6 6 7 7 7 6 2 1 3 2 1 3
9 6 7 7 8 7 7 7 7 6 6 7 7 7 7 7 7 8 7 6 6 7 7 7 7 7 5 5 6 6 6 7 8 7 7 7 6 5 6 5 6 6 5 5 6 5 5 5 2 2 0 3
9 8 8 7 7 7 7 7 7 7 7 7 7 7 7 7 8 9 9 9 7 7 7 7 7 6 6 7 6 7 8 8 7 7 7 6 5 6 7 6 6 5 5 5 5 5 4 4 5 5 4 6
9 9 8 8 8 9 8 8 8 7 7 7 7 7 7 7 7 8 9 9 9 8 7 7 7 6 6 4 5 7 7 7 6 6 6 6 6 5 5 5 5 5 5 5 5 5 3 3 4 4 6 6
8 8 9 8 8 8 9 9 7 7 7 7 7 7 7 7 7 7 8 7 6 7 6 6 6 5 6 6 6 6 6 6 4 4 5 6 5 8 8 8 8 8 8 6 5 4 3 1 4 7 6 6
9 10 9 9 9 9 9 8 8 7 8 7 7 8 8 8 8 8 7 6 6 7 7 7 7 7 7 7 7 8 8 7 7 5 5 6 6 7 7 6 6 6 6 6 6 4 2 4 6 6 5 3
8 7 7 9 8 9 8 7 8 8 8 7 8 8 8 9 8 8 9 9 8 8 8 8 8 8 8 8 8 9 9 9 8 9 7 7 7 7 6 7 8 9 8 6 4 4 2 7 7 5 4 5
6 8 7 8 8 9 7 7 7 8 7 8 8 9 9 9 8 9 9 9 9 9 9 8 8 8 8 8 8 9 8 7 9 8 8 5 6 9 10 11 10 11 6 6 7 7 5 6 4 7 9 7
6 5 5 7 7 8 6 6 7 7 7 7 8 9 9 8 9 9 10 9 9 10 9 9 8 9 8 8 8 8 8 9 10 11 10 8 6 7 9 7 9 10 7 7 4 3 3 4 4 5 9 7
7 7 7 8 7 9 9 6 6 7 6 7 9 9 9 9 9 9 10 9 9 9 8 8 8 8 8 9 9 10 11 11 11 9 10 9 7 5 4 6 7 10 9 5 5 1 3 1 1 2 7 6
8 10 10 9 10 9 9 8 6 8 7 8 9 10 9 9 8 9 9 9 8 8 9 9 9 8 9 9 8 8 9 10 10 10 10 10 10 6 7 5 7 8 10 8 7 6 2 3 2 3 4 7
9 11 10 11 11 10 9 7 6 8 8 8 7 8 9 8 8 9 10 10 10 9 9 8 8 8 8 8 8 7 8 8 8 7 7 8 8 8 5 7 5 7 8 11 8 3 4 5 5 2 4 4
8 9 11 9 9 8 7 8 7 8 7 6 8 8 5 9 9 9 10 9 9 9 8 9 8 7 8 8 8 8 7 7 8 9 9 8 7 9 8 5 7 7 8 7 10 8 5 3 1 3 5 4
7 8 7 6 6 7 8 10 6 6 6 7 6 6 9 8 9 9 9 8 8 8 8 7 7 7 7 8 8 7 8 8 7 7 7 7 8 7 7 7 8 7 6 6 7 8 7 7 4 4 3 3
Wind_Direction
107 118 117 132 152 120 122 121 121 120 134 122 111 117 112 120 121 129 118 113 101 105 99 99 89 86 91 93 95 97 89 81 75 68 65 62 60 57 55 57 55 54 54 49 44 38 29 17 13 9 15 32
135 136 128 111 117 111 113 124 128 130 130 122 122 121 123 129 128 126 133 138 132 123 121 106 106 99 101 102 103 100 93 88 83 77 71 67 65 62 60 59 59 53 48 45 39 32 23 15 12 9 21 34
159 147 139 130 130 132 148 140 131 124 119 126 134 132 139 141 136 136 143 142 138 127 118 121 123 127 116 117 114 109 103 101 96 92 85 80 77 76 71 67 63 61 50 40 37 27 17 14 11 25 35 42
152 149 139 141 145 142 139 138 135 135 143 150 147 144 146 141 136 139 145 143 147 143 124 129 130 124 138 130 128 121 117 113 110 108 103 95 91 92 89 84 80 74 63 45 29 17 17 11 28 32 43 56
147 153 154 148 141 144 136 139 147 152 145 142 135 142 147 143 137 145 150 152 153 137 137 129 139 147 150 140 136 132 129 126 122 119 118 112 109 110 109 105 97 84 79 61 35 20 19 40 44 32 56 73
124 145 172 159 150 149 151 151 151 149 150 152 149 146 150 168 174 159 159 162 143 153 137 143 150 154 148 142 138 138 136 137 130 122 125 128 134 135 135 137 125 109 85 73 44 30 50 44 42 40 60 82
114 151 175 185 158 155 155 154 165 172 164 182 155 172 178 206 232 158 147 148 154 154 155 139 148 152 146 142 141 141 143 141 131 127 133 145 146 157 152 172 196 142 177 188 281 25 74 57 41 48 48 78
194 161 174 175 151 152 162 154 180 213 194 192 167 169 192 211 215 106 104 112 130 127 121 116 123 121 110 133 142 146 143 133 129 132 146 160 178 166 169 124 90 118 127 145 105 65 83 78 77 79 67 78
263 173 130 131 146 144 159 151 157 203 149 172 215 188 348 298 107 127 136 137 143 148 132 130 129 123 119 128 133 148 143 151 136 145 171 189 206 263 74 56 34 41 40 43 62 45 31 54 63 81 81 69
343 54 87 93 125 128 146 136 114 59 36 31 44 49 44 8 37 16 80 151 154 185 146 150 153 154 143 142 161 177 156 187 150 191 203 191 142 88 62 53 47 31 38 41 58 41 15 12 33 60 67 74
333 59 67 66 56 70 83 82 80 62 37 52 66 41 53 48 27 27 14 38 200 165 158 157 163 161 144 154 157 189 156 223 204 149 94 55 86 86 82 66 52 45 16 39 65 46 28 359 21 23 22 32
178 115 68 63 52 46 35 53 61 55 49 42 34 28 35 69 81 57 22 1 0 21 52 34 92 110 130 150 152 167 193 196 119 87 55 63 94 106 104 89 100 119 114 15 80 68 23 3 40 16 23 34
142 78 64 57 69 60 61 60 56 62 53 43 31 25 22 25 44 39 37 10 1 357 41 56 72 66 54 48 140 171 189 124 110 89 85 31 41 49 68 90 86 81 54 79 52 56 27 6 36 27 32 30
61 67 69 61 67 70 66 69 60 59 55 41 33 28 28 44 41 40 38 25 10 22 33 45 45 42 46 44 36 60 54 44 54 53 53 46 34 39 36 28 20 39 51 94 91 54 35 12 4 44 56 34
62 68 70 61 59 64 60 67 65 65 59 55 46 31 34 41 38 42 37 43 33 34 31 50 50 44 38 35 28 43 63 56 64 66 66 65 52 49 35 12 346 25 24 77 81 81 72 4 9 29 29 42
71 71 74 72 74 72 68 72 71 67 58 49 45 41 42 39 37 45 53 46 45 49 45 50 51 50 44 32 31 44 58 64 65 72 62 55 64 54 56 32 343 348 7 72 71 76 65 358 66 50 18 43
80 79 79 77 79 75 67 65 67 67 65 61 47 40 42 54 56 55 62 57 54 51 51 49 43 46 48 28 12 39 49 76 79 76 67 53 46 36 26 23 360 339 342 40 31 132 110 12 45 68 30 53
79 75 74 65 67 68 66 64 62 59 65 68 62 49 36 24 33 60 75 81 73 63 61 57 53 47 35 32 16 22 38 48 41 45 44 19 13 27 41 36 11 359 6 359 356 6 349 40 81 36 20 74
78 73 76 72 67 65 66 63 62 53 49 54 54 49 38 34 32 35 44 61 71 69 62 57 52 44 40 32 32 32 30 51 45 40 37 25 24 33 32 41 25 16 7 355 347 344 341 352 22 360 48 70
79 77 74 71 73 76 70 68 62 53 51 52 49 43 38 32 36 38 42 46 55 69 64 62 57 47 36 35 41 42 41 45 49 46 42 31 29 41 31 26 17 7 352 338 324 318 333 334 1 358 32 58
78 75 77 78 76 74 71 67 63 58 56 59 55 45 43 33 36 40 46 54 55 62 63 64 64 52 49 49 61 61 57 58 56 61 60 41 34 45 35 19 1 347 345 327 311 305 300 329 345 17 62 53
88 83 79 74 68 67 67 65 63 61 57 57 55 50 46 36 34 40 50 50 53 63 62 64 67 61 53 47 49 54 57 59 55 68 75 61 38 41 28 16 10 359 343 321 306 304 313 330 24 49 50 57
88 85 78 73 68 64 62 58 56 54 57 51 52 51 49 45 40 32 36 49 49 56 51 49 47 47 39 40 43 47 44 39 31 28 52 64 47 44 42 24 5 347 330 323 306 268 271 82 58 60 57 55
92 88 83 83 77 67 60 61 61 53 54 50 52 49 52 49 46 40 38 37 42 50 46 43 39 46 43 41 44 46 43 34 30 31 25 52 65 48 28 27 12 2 353 339 348 351 34 83 82 62 45 36
94 94 90 79 76 80 66 63 61 59 50 51 50 50 52 50 48 46 43 40 43 48 50 49 42 41 39 40 45 48 46 38 36 33 37 31 66 56 37 24 12 4 353 19 2 359 50 75 81 66 35 40
85 74 89 104 87 88 70 64 62 64 50 52 52 50 50 51 49 49 48 44 44 47 48 50 48 47 46 45 48 53 49 45 38 35 33 31 31 57 65 43 16 4 11 23 10 337 339 30 45 68 47 31
97 95 91 102 105 101 95 72 76 79 72 63 63 55 52 52 53 53 52 49 49 53 49 53 55 48 46 46 42 45 41 37 38 31 32 34 41 24 50 67 31 25 33 14 325 265 84 72 82 348 17 14
93 98 99 95 102 94 96 106 90 81 71 65 62 55 52 52 54 55 60 54 54 56 51 48 49 46 45 45 45 51 50 41 37 31 28 29 31 35 45 24 27 32 26 32 15 19 13 317 50 11 352 342
110 106 100 100 98 102 102 87 82 80 64 58 62 66 51 49 52 55 57 51 50 52 53 49 48 51 47 48 41 46 53 49 41 35 34 33 36 36 52 37 23 13 25 30 31 73 27 5 33 45 291 328
124 120 122 122 122 116 104 89 76 76 90 76 65 68 68 57 51 54 56 52 51 51 51 51 49 51 54 50 45 42 48 48 41 33 33 26 39 34 26 63 42 29 5 28 25 31 61 100 116 318 311 44
126 122 122 116 108 107 113 112 90 96 88 92 87 81 68 64 54 51 56 51 50 49 49 51 49 52 54 56 54 47 51 48 43 39 36 27 40 42 36 37 57 40 10 0 21 16 18 23 17 13 35 341